Temp_Advection
nan nan nan nan nan nan nan nan nan nan nan nan nan nan nan nan nan nan nan nan nan nan nan nan nan nan nan nan nan nan nan nan nan nan nan nan nan nan nan nan nan nan nan nan nan nan nan nan nan
nan 0 0 0 0 -0 -0 -0 -0 -1 -0 0 -0 -1 -0 -0 0 0 -0 -0 -0 0 0 0 0 0 0 -0 0 0 0 0 0 0 0 0 0 -0 -0 -0 0 0 0 0 -0 -0 -0 -0 nan
nan 0 -0 0 -0 -1 -0 -0 -1 -1 -1 0 -0 -0 -0 -0 -0 -0 -0 -0 -0 0 -0 0 0 0 0 0 0 0 0 0 0 0 0 0 0 0 0 0 0 0 0 0 0 -0 -0 -0 nan
nan 0 0 0 -1 -0 -0 -0 -0 -0 -0 -0 -0 -0 0 0 0 0 -0 -0 -0 0 -0 -0 0 0 0 0 0 0 0 0 0 0 0 0 0 0 0 0 0 0 0 0 0 0 -0 -0 nan
nan 0 0 -0 -1 -0 -0 -1 -0 -0 -0 -0 0 -0 0 0 1 1 -0 -0 -0 -0 0 0 -0 -0 0 0 0 0 0 0 0 0 0 0 0 0 0 0 0 0 0 0 0 0 -0 -0 nan
nan 0 0 -1 -0 -0 -1 -2 0 -0 -0 1 -0 -1 0 1 0 1 1 -1 0 0 0 0 0 0 -0 -0 -0 0 0 0 0 0 -0 0 0 0 0 -0 -0 0 0 0 0 0 0 -0 nan
nan 0 -0 -0 -0 -0 -1 -1 0 -0 1 0 0 -1 0 1 0 -1 1 -1 -0 0 0 -0 0 1 0 0 0 -0 0 0 0 0 0 -0 0 0 0 0 -0 0 0 0 0 0 0 0 nan
nan -0 -0 0 -0 -0 -1 -1 0 1 0 1 1 -0 -1 -1 -1 0 0 1 0 1 -0 0 0 0 1 1 0 0 0 0 0 0 0 -0 0 0 0 0 0 0 0 0 0 0 0 0 nan
nan 0 -0 -0 -0 -0 -1 -0 -0 0 0 0 1 0 -0 -0 0 1 0 2 2 0 0 0 0 1 0 0 1 0 0 0 0 0 0 0 0 0 0 0 0 0 0 0 0 0 0 0 nan
nan 0 -1 -0 -0 -0 -0 -0 0 0 -0 -0 0 0 0 1 1 1 1 1 1 1 2 1 1 1 -0 0 0 1 0 0 0 0 0 0 -0 -0 -0 0 0 0 -0 -0 -0 0 0 0 nan
nan -0 -1 -0 0 0 0 -0 -0 -0 -0 -0 -1 -1 -0 0 0 1 1 1 1 2 2 2 1 0 0 0 1 -0 0 1 1 0 0 -0 -0 -0 0 0 0 0 0 0 -0 0 0 0 nan
nan -0 -1 -0 -0 0 -0 -0 -0 -0 -0 0 -0 -0 0 0 1 1 1 1 1 0 0 1 1 1 0 0 -0 -0 0 1 1 1 0 -0 0 0 0 0 0 0 0 0 0 -0 0 0 nan
nan -0 -0 0 0 0 0 -0 -0 -0 1 0 0 1 1 1 1 1 1 0 0 1 1 0 1 -0 0 0 1 0 1 0 0 1 0 0 0 0 0 0 0 0 0 0 0 0 0 -0 nan
nan -0 0 1 0 0 -0 -0 -0 -0 0 0 0 0 1 1 1 1 0 0 0 0 0 0 -0 -0 0 0 1 -0 1 0 1 -0 0 0 0 0 0 0 0 -0 -0 0 0 0 0 0 nan
nan -0 -0 0 0 0 -0 -0 0 0 0 0 0 0 0 0 1 0 0 0 0 0 0 -0 0 0 -0 1 1 1 1 1 0 -1 0 0 0 0 1 1 0 -0 0 0 -0 0 0 0 nan
nan -0 0 -0 0 0 0 0 -0 0 -0 -0 -0 0 0 0 0 0 0 0 0 0 0 0 0 0 0 1 0 0 0 -0 -0 0 1 0 0 1 1 0 0 0 0 0 -0 0 0 0 nan
nan 0 -0 -0 0 0 0 0 -0 0 0 0 -0 -0 -0 -0 0 0 0 0 0 0 0 0 0 0 0 0 0 -0 0 0 0 1 0 0 1 1 -1 -0 -0 -0 -0 -0 -0 0 0 0 nan
nan -0 -0 0 0 -0 0 0 -0 -1 -2 -0 1 1 0 -0 0 0 0 0 0 0 0 0 0 0 0 0 0 0 0 0 0 0 0 0 -0 -1 -0 1 -0 -0 -0 0 0 0 -0 -0 nan
nan 0 0 0 -0 -0 0 -1 -1 -1 -2 -1 -1 -1 0 1 1 0 0 0 0 0 0 0 0 0 0 -0 0 0 0 0 0 -0 0 -0 -0 0 1 -0 -1 0 0 0 0 -0 -0 -0 nan
nan 0 -0 -0 -0 -0 -1 -1 -0 -1 -1 -1 -0 -0 -0 -0 1 1 0 0 0 0 0 0 0 0 0 0 0 0 0 0 -0 -0 -0 -0 0 0 -0 -0 0 0 0 0 0 0 0 0 nan
nan 0 0 0 0 -0 -1 -0 -0 -0 -1 -1 -0 -0 -0 -0 -0 0 0 0 0 0 0 0 0 0 0 0 0 0 0 0 0 0 0 0 0 0 -0 0 0 0 0 0 0 0 0 0 nan
nan 0 0 0 -0 0 -0 0 0 -0 -0 -1 -0 -0 -1 -1 -0 -0 0 -0 0 0 0 0 0 0 0 0 0 0 0 0 0 0 0 0 0 0 -0 0 0 0 0 0 0 0 0 0 nan
nan -0 -0 -0 -0 0 -0 -0 0 0 -0 -0 0 0 -0 -1 -1 -0 0 0 0 0 0 0 0 0 0 0 0 0 0 0 0 0 0 0 0 0 0 0 0 0 0 0 0 0 0 0 nan
nan -0 -0 -0 -0 -0 0 -0 0 -0 -0 0 0 -0 -0 -0 -0 -0 -0 0 0 0 0 0 -0 0 0 0 0 0 0 0 0 0 0 0 0 0 0 0 0 0 0 0 0 0 0 0 nan
nan -0 -0 -0 -0 -0 -0 -0 0 0 -0 0 0 -0 -0 -0 -0 -0 0 0 0 0 0 0 0 0 0 0 0 0 0 0 0 0 0 0 0 0 0 0 0 0 0 0 0 0 0 0 nan
nan 0 0 0 -0 -0 -0 0 -0 -0 -0 -0 0 -0 -0 -0 -0 0 0 0 0 0 0 0 0 0 0 0 0 0 0 0 0 0 0 0 0 0 0 0 0 0 0 0 0 0 0 0 nan
nan 0 0 0 0 -0 -0 0 -0 -0 -0 -0 -0 -0 -0 -0 -0 -0 0 0 0 0 0 0 0 0 0 0 0 0 0 0 0 0 0 0 0 0 0 0 0 0 0 0 0 0 0 0 nan
nan -0 0 -0 0 0 -0 0 0 -0 0 -0 -0 -0 -0 -0 -0 -0 -0 0 -0 0 0 0 0 0 0 0 0 0 0 0 0 0 0 0 0 0 0 0 0 0 0 0 0 0 0 0 nan
nan -0 -0 0 0 0 -0 0 0 0 0 -0 -0 0 -0 -0 -0 -0 -0 -0 -0 0 0 0 0 0 0 0 0 0 0 0 0 -0 -0 -0 -0 -0 -0 -0 -0 -0 0 0 0 0 0 0 nan
nan nan nan nan nan nan nan nan nan nan nan nan nan nan nan nan nan nan nan nan nan nan nan nan nan nan nan nan nan nan nan nan nan nan nan nan nan nan nan nan nan nan nan nan nan nan nan nan nan
Wind_Speed
7 12 12 7 2 2 4 6 4 3 2 4 4 12 7 6 3 3 12 12 10 13 16 16 18 18 17 16 14 14 12 12 11 12 13 13 14 14 12 10 8 9 12 13 14 15 15 16 19
13 19 10 3 2 7 4 5 8 13 7 10 6 12 6 2 5 8 13 15 15 12 16 16 17 18 18 18 16 16 13 12 12 12 12 13 13 11 11 12 10 11 13 14 15 16 17 17 18
20 18 6 4 4 9 5 9 15 16 27 10 3 4 6 8 8 9 8 17 18 17 18 14 18 17 17 20 19 18 16 14 14 13 13 12 13 13 14 12 11 12 12 14 16 17 18 18 19
17 9 5 3 11 5 7 7 9 7 7 15 12 4 7 11 10 10 14 20 22 21 21 22 21 15 17 19 19 19 17 16 16 15 14 10 12 12 15 13 12 12 12 12 14 17 18 19 19
16 5 3 5 17 4 7 18 11 7 7 14 14 7 8 12 13 18 18 22 25 24 24 21 28 37 33 28 22 22 21 20 18 17 15 11 12 12 14 13 12 11 11 11 11 13 16 17 16
5 4 3 16 9 6 10 27 22 11 20 19 11 19 9 14 18 20 15 21 28 26 23 24 30 32 33 33 25 25 24 22 21 19 19 14 12 13 13 15 12 11 10 10 10 10 12 13 15
5 4 7 4 5 14 9 30 8 10 13 9 12 9 9 20 21 20 22 19 29 26 25 23 24 27 26 25 21 18 19 18 15 13 15 12 8 10 11 11 13 13 11 10 9 9 9 10 12
6 2 4 5 6 7 7 13 16 21 6 17 14 7 8 25 24 21 20 23 25 31 27 26 20 20 23 26 24 23 20 16 15 13 12 9 8 7 10 11 10 11 10 9 8 8 7 7 9
10 1 5 5 7 5 15 3 1 4 18 8 8 8 9 19 26 24 23 25 29 28 26 15 25 23 18 16 24 21 20 19 17 15 13 10 7 6 9 11 12 12 12 11 9 8 6 6 7
6 4 6 5 6 5 3 3 5 6 8 6 9 8 10 18 25 26 26 28 31 28 27 24 26 24 24 19 13 23 24 21 20 18 15 12 10 10 9 11 12 12 13 14 12 10 8 6 6
6 6 6 3 4 2 1 2 2 7 2 6 10 18 14 16 21 26 27 26 28 28 27 29 26 21 24 14 22 14 20 21 22 19 16 13 12 13 12 12 13 12 11 12 14 14 10 9 7
3 9 16 13 6 2 1 2 3 3 3 3 2 14 17 17 18 21 24 25 26 25 23 22 25 21 19 22 21 20 18 16 20 19 19 16 14 14 15 14 15 14 13 12 13 14 15 12 10
6 7 10 9 7 5 4 2 2 7 9 7 10 15 14 15 15 15 16 18 21 22 23 20 18 17 21 22 17 24 23 16 17 18 19 17 16 17 17 17 17 16 16 15 15 13 15 16 14
3 8 16 12 8 3 3 1 0 9 11 10 10 12 12 13 15 17 18 19 18 17 18 19 19 19 16 17 18 22 23 21 19 14 15 17 18 17 17 18 17 17 16 15 15 15 13 15 17
3 1 5 5 9 3 4 4 4 13 11 13 10 10 10 11 14 15 16 17 15 14 15 16 16 16 16 18 15 17 16 16 19 18 15 16 18 19 20 18 18 16 17 16 15 17 16 16 15
3 4 2 3 8 3 8 5 4 9 16 14 15 13 11 10 12 13 13 14 14 14 15 15 13 13 13 15 16 16 15 15 13 17 19 18 17 21 18 17 17 18 15 14 13 17 20 21 21
2 4 5 4 8 6 4 3 1 3 9 15 18 17 16 15 13 11 11 11 13 13 13 14 13 11 11 11 14 13 12 13 14 12 14 12 14 14 12 11 16 16 15 16 16 16 18 19 19
5 5 4 6 5 5 6 3 5 12 21 17 14 14 16 15 13 10 9 9 11 12 12 11 12 12 12 11 9 6 9 8 10 14 11 12 14 15 15 17 16 15 15 16 16 17 18 17 17
4 3 2 0 1 5 6 6 10 14 23 21 24 27 11 10 12 10 8 7 10 11 12 11 10 11 10 10 9 10 10 11 11 8 10 12 14 14 14 14 14 15 15 15 16 17 16 17 16
4 3 3 4 3 4 12 10 11 13 11 17 19 20 19 15 10 12 9 6 8 10 11 11 11 11 10 10 10 9 10 10 11 11 13 12 13 12 12 12 13 14 14 14 15 15 15 15 13
2 4 3 4 2 3 10 3 3 5 17 21 23 16 12 11 9 9 10 7 7 10 11 12 11 10 9 9 8 8 8 9 9 10 10 12 11 11 10 11 12 12 12 13 13 13 14 13 12
5 1 4 5 3 4 3 4 3 3 9 11 19 21 18 11 4 4 14 11 7 10 11 11 11 11 10 9 10 9 8 8 8 7 8 8 9 9 9 10 10 10 11 11 11 11 12 12 12
2 2 4 2 4 4 1 3 2 4 7 6 12 19 20 16 10 4 8 16 10 10 11 10 10 10 10 10 10 8 8 7 6 6 7 7 7 7 8 8 9 9 9 10 10 10 10 11 10
1 4 5 3 3 1 6 5 2 1 1 3 9 14 17 20 13 6 8 16 15 12 12 11 11 11 10 9 8 8 7 7 7 7 7 6 5 6 6 7 7 8 8 9 10 10 11 11 11
5 4 2 2 1 5 3 4 3 2 2 4 7 15 16 18 15 9 4 12 17 15 14 12 11 10 10 9 8 7 7 7 6 5 5 4 4 4 5 5 6 7 8 8 9 9 9 9 10
2 3 2 6 4 3 3 4 3 5 12 13 12 12 16 17 15 13 5 7 15 15 15 14 12 10 9 8 7 7 6 5 5 5 4 4 3 3 4 4 6 6 7 7 8 9 9 9 10
4 1 3 2 1 3 4 3 6 6 7 13 11 12 17 17 16 10 7 4 4 6 14 15 11 9 8 7 6 5 6 5 5 4 4 3 3 3 4 4 5 5 6 7 7 8 9 9 10
3 2 2 2 3 4 3 3 3 2 5 6 9 13 15 15 16 14 8 2 3 3 11 14 10 9 7 6 5 4 3 4 3 3 3 3 3 4 4 4 5 5 6 6 7 7 8 8 9
3 2 3 1 2 3 4 3 3 4 3 4 8 9 13 17 15 15 13 9 4 3 8 10 10 9 7 6 5 5 4 4 4 3 3 4 4 4 4 4 5 5 5 6 6 7 8 9 8
3 3 2 3 3 1 3 2 2 6 4 4 8 10 10 8 10 12 11 13 10 8 6 5 6 6 7 6 6 6 6 5 4 4 5 6 7 7 7 6 6 6 6 6 6 6 7 8 8
Wind_Direction
193 152 144 155 65 92 218 238 251 240 231 182 124 113 110 84 42 170 156 171 171 172 181 178 170 165 156 155 155 157 154 158 154 147 146 146 142 135 129 118 111 96 95 87 82 81 89 96 102
183 158 166 196 184 223 236 235 205 239 207 142 132 102 118 129 120 130 169 175 157 154 174 174 170 169 162 158 153 155 155 155 153 149 150 156 161 160 149 140 128 106 100 93 89 86 87 99 103
182 165 170 172 189 222 234 202 228 240 245 209 150 96 121 139 135 143 163 164 156 140 173 158 166 174 170 165 161 160 157 154 150 149 148 160 156 159 151 144 133 121 107 100 94 89 88 97 104
174 187 252 223 235 217 248 244 227 235 251 229 171 100 131 163 157 156 146 159 163 156 171 159 158 154 173 170 166 163 159 157 159 152 153 161 166 154 157 147 144 132 119 107 100 94 91 94 101
163 165 223 244 246 232 267 257 241 238 188 192 174 158 147 164 157 157 137 161 170 169 160 165 158 128 133 137 156 161 154 148 149 155 156 160 168 164 149 153 151 142 130 119 108 101 97 94 95
172 200 191 231 223 214 247 263 266 221 221 194 168 140 159 165 157 162 143 161 173 174 168 159 169 152 153 156 161 161 164 155 152 156 162 166 169 166 161 156 154 156 147 136 123 112 102 99 94
165 143 220 209 207 238 253 248 224 238 173 182 177 126 159 166 170 170 157 171 178 185 185 187 175 165 175 173 175 173 169 167 161 165 169 174 174 172 168 169 168 161 158 156 145 129 120 107 100
219 135 236 216 226 260 238 262 302 213 180 146 168 167 182 179 183 185 174 171 182 187 198 197 202 191 167 171 172 177 174 175 170 175 175 181 181 168 176 175 176 180 177 168 161 149 134 125 107
215 207 228 203 203 250 292 279 332 149 132 134 136 144 166 181 191 188 183 178 186 188 194 214 217 217 204 189 185 192 194 195 189 196 206 202 218 206 189 180 174 176 175 176 174 168 148 128 122
181 172 224 215 219 230 262 39 156 158 117 83 123 140 152 174 189 194 191 190 188 189 190 197 225 219 225 240 209 193 194 192 194 200 204 205 219 234 222 201 190 185 181 181 180 180 173 156 121
200 193 222 287 158 179 177 25 42 114 87 160 185 166 172 180 188 199 202 203 199 196 195 194 210 232 235 266 272 245 203 195 196 200 209 212 225 233 232 222 210 202 196 196 191 182 181 166 161
246 220 237 255 252 141 67 313 60 85 122 111 166 186 183 191 195 199 206 209 210 207 211 207 204 213 231 227 242 269 245 208 203 196 209 215 227 240 228 222 217 213 208 206 208 195 181 185 173
231 240 249 245 184 148 137 51 97 108 135 132 131 162 178 189 195 197 207 215 217 215 216 222 224 227 215 226 228 247 252 233 209 195 200 212 218 229 227 224 225 218 214 211 212 209 204 194 190
277 201 239 193 169 128 124 58 29 137 147 125 140 153 172 186 191 192 200 213 220 219 221 223 222 228 228 228 228 239 238 240 238 219 202 210 213 215 218 223 224 223 225 224 228 219 215 221 206
156 95 333 158 158 130 112 326 211 157 150 133 139 150 164 175 184 199 204 215 222 227 225 222 223 224 229 231 223 228 236 218 224 225 219 213 217 215 214 212 215 220 225 228 227 239 229 229 220
120 75 163 241 144 157 135 256 340 157 147 135 138 143 152 163 184 197 207 219 228 229 222 222 214 217 220 227 231 228 223 233 227 232 220 218 218 221 218 211 219 222 223 228 231 242 242 237 238
313 191 194 262 176 134 138 228 323 84 123 138 134 140 146 156 177 195 215 231 227 220 213 204 205 207 208 211 226 223 226 224 216 214 224 234 220 214 219 219 224 222 219 227 231 231 237 240 238
208 201 205 187 162 110 134 117 57 36 73 77 121 134 148 165 185 206 224 228 221 211 206 198 196 199 198 201 206 223 227 223 219 215 198 216 233 218 217 215 216 219 218 225 228 227 232 236 236
157 127 112 154 286 118 137 80 54 50 50 48 54 61 61 167 181 203 216 230 218 208 204 196 195 195 197 196 193 183 197 206 215 206 209 206 220 221 213 219 221 224 220 220 224 232 232 236 239
168 160 137 4 9 90 102 80 58 45 51 48 41 43 45 76 156 191 214 234 225 211 200 195 189 195 198 199 201 195 185 189 190 203 212 213 215 213 219 222 226 225 224 226 226 225 232 235 238
131 159 129 156 177 52 122 86 61 57 50 43 37 31 34 29 57 193 221 234 228 214 202 195 193 195 196 204 209 207 200 193 196 196 203 209 211 219 221 225 228 225 223 223 226 227 230 230 230
169 346 117 132 116 180 112 223 158 105 54 34 29 28 13 355 330 49 211 237 250 220 211 200 194 195 198 197 199 199 203 200 200 196 201 208 208 213 218 225 229 227 225 230 230 234 232 230 228
142 39 107 92 95 91 259 101 291 174 29 9 16 24 15 0 340 276 203 223 240 229 215 214 201 194 197 197 199 200 201 201 209 207 204 208 211 213 219 223 228 234 233 230 231 229 228 232 230
132 86 57 54 80 15 213 144 168 10 139 334 20 21 10 3 356 330 212 203 219 224 226 219 214 196 193 197 201 201 199 194 200 206 208 210 216 215 221 227 231 233 233 230 229 228 231 233 237
53 85 48 58 19 216 321 96 226 139 116 99 40 22 14 9 15 10 188 197 209 221 227 221 214 205 193 195 197 197 194 190 197 204 216 221 224 221 228 232 234 237 238 240 239 235 233 232 234
169 159 171 199 194 222 23 156 165 119 84 63 49 31 26 24 28 33 99 180 208 221 230 225 213 200 196 188 192 193 194 193 192 199 212 224 234 238 234 237 239 240 244 241 242 238 237 236 237
281 133 205 92 337 92 118 43 100 80 60 41 30 32 28 32 34 36 69 119 182 230 231 219 211 198 197 190 187 189 194 193 190 192 199 217 227 238 238 240 244 244 244 244 245 246 245 240 239
123 205 67 333 197 203 106 134 145 56 53 36 5 16 41 41 44 41 48 94 264 260 212 203 196 193 196 197 198 198 206 210 200 201 205 214 226 233 237 241 247 246 246 247 244 245 248 247 244
1 25 1 102 152 172 142 251 192 124 66 43 353 29 59 48 44 51 49 58 60 118 167 186 196 195 191 192 203 209 212 218 229 243 252 261 264 267 262 257 252 251 250 250 250 247 247 247 249
164 176 115 124 284 52 97 248 167 127 128 76 44 40 45 42 52 49 56 64 76 99 129 169 191 200 208 218 217 212 211 220 234 252 263 265 263 264 267 266 264 261 259 257 258 259 264 263 259
Height
1496 1497 1499 1501 1511 1509 1507 1497 1487 1486 1488 1485 1486 1482 1490 1497 1499 1505 1504 1506 1509 1511 1514 1516 1518 1522 1524 1527 1529 1531 1533 1535 1537 1538 1540 1542 1543 1545 1546 1547 1547 1547 1547 1548 1548 1548 1549 1550 1551
1495 1496 1499 1499 1506 1503 1500 1490 1489 1481 1481 1482 1482 1482 1491 1499 1498 1501 1504 1507 1510 1511 1513 1516 1519 1522 1524 1526 1529 1531 1533 1535 1537 1539 1541 1542 1543 1545 1546 1548 1549 1549 1549 1550 1550 1550 1551 1551 1553
1492 1493 1496 1497 1499 1495 1489 1483 1479 1478 1477 1481 1481 1483 1489 1494 1497 1501 1502 1505 1511 1511 1513 1516 1518 1522 1525 1526 1528 1531 1533 1535 1537 1539 1542 1543 1543 1545 1547 1548 1550 1550 1551 1551 1552 1552 1552 1553 1554
1490 1494 1494 1494 1487 1486 1484 1479 1476 1476 1477 1478 1480 1487 1491 1495 1496 1498 1500 1504 1510 1511 1512 1512 1517 1522 1524 1526 1528 1530 1533 1535 1537 1540 1541 1543 1544 1546 1547 1549 1550 1551 1552 1553 1554 1554 1554 1554 1555
1485 1488 1495 1491 1481 1482 1479 1476 1479 1477 1478 1477 1480 1488 1491 1495 1496 1497 1498 1504 1509 1511 1514 1515 1516 1514 1519 1524 1527 1529 1533 1534 1537 1539 1541 1543 1544 1546 1548 1549 1551 1552 1553 1554 1555 1556 1556 1556 1557
1484 1484 1493 1483 1480 1478 1476 1471 1471 1474 1473 1476 1480 1485 1491 1494 1494 1496 1497 1502 1507 1512 1515 1516 1517 1516 1515 1519 1525 1529 1531 1534 1535 1538 1540 1542 1544 1546 1548 1549 1551 1552 1554 1555 1556 1556 1558 1559 1559
1480 1484 1481 1478 1481 1480 1473 1468 1470 1469 1470 1471 1475 1481 1490 1492 1493 1496 1496 1502 1506 1509 1515 1516 1518 1518 1519 1524 1528 1530 1532 1534 1536 1539 1540 1542 1544 1546 1548 1550 1551 1552 1553 1555 1556 1557 1558 1559 1560
1477 1478 1475 1476 1479 1476 1468 1466 1464 1465 1468 1468 1472 1477 1485 1486 1490 1493 1497 1497 1502 1508 1514 1513 1517 1521 1519 1523 1526 1528 1531 1533 1535 1538 1540 1542 1543 1546 1547 1549 1551 1552 1554 1555 1556 1557 1559 1560 1561
1474 1479 1479 1473 1472 1469 1462 1464 1462 1463 1461 1466 1470 1473 1477 1482 1486 1492 1495 1497 1501 1505 1508 1509 1516 1519 1521 1516 1523 1527 1530 1532 1534 1536 1539 1541 1543 1545 1547 1548 1549 1550 1552 1554 1556 1557 1559 1560 1561
1470 1476 1471 1464 1464 1464 1463 1461 1461 1465 1463 1468 1470 1473 1476 1480 1485 1490 1492 1495 1497 1500 1504 1507 1514 1518 1519 1520 1516 1523 1526 1529 1531 1534 1537 1539 1542 1543 1546 1548 1548 1549 1550 1552 1554 1556 1558 1559 1561
1464 1468 1464 1462 1461 1462 1460 1459 1459 1461 1463 1465 1466 1469 1476 1480 1484 1488 1491 1495 1497 1499 1501 1502 1508 1513 1515 1516 1519 1517 1521 1524 1527 1531 1534 1537 1539 1542 1544 1547 1548 1548 1550 1551 1552 1554 1557 1558 1560
1463 1459 1462 1461 1460 1461 1460 1459 1461 1460 1464 1464 1466 1469 1473 1477 1482 1487 1490 1495 1495 1497 1500 1499 1501 1505 1510 1513 1518 1517 1520 1518 1523 1524 1530 1533 1536 1539 1542 1545 1547 1548 1549 1550 1552 1553 1554 1556 1558
1459 1457 1456 1457 1457 1458 1460 1460 1461 1465 1465 1466 1467 1470 1473 1477 1481 1486 1489 1491 1494 1495 1498 1499 1500 1500 1504 1511 1513 1517 1518 1520 1519 1517 1523 1529 1532 1536 1539 1542 1545 1545 1547 1548 1549 1552 1554 1555 1557
1452 1452 1454 1456 1456 1457 1458 1462 1461 1465 1464 1464 1467 1470 1475 1477 1481 1484 1487 1488 1491 1493 1494 1497 1499 1500 1501 1505 1509 1513 1517 1519 1519 1519 1520 1525 1528 1532 1535 1538 1541 1543 1544 1546 1548 1549 1552 1554 1555
1450 1452 1451 1452 1452 1455 1457 1461 1462 1462 1463 1465 1467 1471 1475 1479 1481 1484 1486 1488 1491 1493 1494 1496 1496 1500 1500 1501 1506 1508 1513 1517 1519 1517 1518 1523 1525 1528 1531 1534 1537 1538 1540 1542 1544 1548 1549 1551 1553
1449 1452 1459 1450 1451 1456 1458 1467 1464 1463 1462 1466 1469 1473 1476 1480 1482 1484 1486 1488 1490 1493 1494 1494 1495 1499 1501 1501 1506 1508 1511 1513 1512 1513 1518 1520 1521 1525 1528 1527 1532 1535 1535 1537 1539 1543 1546 1548 1550
1454 1463 1458 1451 1448 1453 1458 1464 1465 1464 1465 1468 1471 1475 1478 1481 1483 1485 1486 1488 1489 1492 1494 1495 1496 1498 1500 1501 1505 1502 1505 1507 1512 1513 1514 1514 1517 1525 1525 1525 1530 1532 1532 1534 1536 1538 1541 1544 1545
1457 1456 1451 1452 1452 1452 1460 1466 1468 1469 1469 1473 1475 1478 1479 1482 1484 1485 1486 1487 1488 1491 1493 1494 1497 1499 1500 1502 1502 1498 1501 1503 1511 1516 1511 1515 1519 1521 1522 1527 1529 1527 1528 1530 1533 1535 1536 1541 1541
1454 1452 1451 1452 1451 1452 1462 1469 1478 1477 1475 1477 1479 1480 1481 1484 1485 1486 1486 1488 1489 1490 1493 1493 1496 1498 1498 1497 1501 1503 1506 1510 1512 1511 1513 1517 1520 1520 1523 1524 1522 1524 1524 1527 1530 1533 1532 1534 1535
1448 1449 1451 1456 1452 1454 1468 1484 1485 1483 1486 1486 1484 1483 1484 1485 1488 1487 1487 1487 1489 1491 1493 1494 1495 1497 1498 1499 1503 1504 1506 1508 1508 1510 1512 1516 1517 1519 1519 1520 1520 1521 1521 1524 1526 1528 1529 1531 1532
1448 1456 1452 1453 1455 1457 1467 1489 1487 1491 1489 1487 1487 1487 1486 1487 1488 1490 1489 1488 1489 1491 1493 1494 1494 1496 1498 1500 1501 1503 1504 1504 1509 1509 1511 1514 1514 1516 1515 1517 1519 1517 1518 1520 1523 1525 1526 1527 1529
1448 1454 1453 1453 1463 1470 1464 1492 1491 1494 1493 1492 1491 1490 1488 1487 1487 1487 1490 1489 1489 1490 1493 1494 1495 1497 1500 1501 1501 1501 1503 1505 1509 1509 1510 1513 1512 1513 1512 1515 1516 1516 1516 1518 1519 1520 1523 1525 1526
1455 1453 1454 1459 1470 1470 1463 1475 1490 1489 1497 1498 1494 1492 1490 1488 1487 1486 1487 1489 1489 1490 1492 1494 1495 1496 1498 1499 1500 1500 1502 1503 1505 1508 1509 1510 1511 1509 1511 1511 1513 1515 1516 1516 1517 1517 1520 1522 1523
1456 1456 1458 1462 1471 1496 1465 1466 1487 1497 1498 1499 1495 1494 1492 1488 1485 1483 1484 1486 1488 1490 1491 1493 1495 1495 1497 1498 1500 1501 1502 1502 1505 1507 1508 1508 1509 1508 1509 1510 1512 1514 1515 1515 1516 1515 1517 1519 1520
1461 1466 1488 1481 1495 1487 1473 1469 1506 1498 1499 1498 1498 1495 1493 1490 1486 1482 1482 1485 1487 1490 1491 1492 1495 1496 1497 1498 1500 1501 1502 1502 1504 1504 1506 1506 1507 1507 1508 1508 1509 1512 1513 1513 1514 1513 1515 1515 1517
1464 1465 1456 1459 1497 1480 1472 1501 1496 1498 1498 1498 1498 1497 1494 1490 1487 1484 1483 1485 1487 1490 1491 1492 1494 1496 1498 1498 1499 1501 1502 1502 1502 1503 1504 1505 1505 1505 1506 1506 1509 1509 1511 1511 1513 1512 1512 1513 1515
1469 1476 1474 1473 1466 1474 1488 1495 1497 1499 1499 1499 1499 1497 1494 1491 1489 1487 1486 1487 1488 1489 1490 1492 1494 1495 1497 1498 1499 1500 1501 1501 1501 1501 1502 1504 1505 1505 1506 1507 1507 1508 1509 1509 1509 1510 1511 1511 1513
1471 1473 1473 1476 1470 1450 1482 1492 1498 1506 1501 1501 1499 1497 1496 1493 1490 1488 1487 1487 1486 1487 1488 1490 1493 1495 1497 1498 1499 1500 1501 1501 1501 1502 1502 1504 1504 1506 1505 1504 1506 1508 1507 1508 1508 1508 1509 1510 1509
1474 1469 1479 1476 1478 1480 1485 1510 1504 1504 1503 1503 1501 1499 1498 1495 1493 1491 1489 1487 1486 1486 1487 1490 1493 1495 1497 1498 1499 1500 1501 1501 1502 1502 1503 1503 1503 1503 1503 1504 1505 1505 1505 1505 1505 1506 1506 1507 1506
1487 1485 1485 1477 1481 1481 1479 1514 1503 1503 1503 1503 1502 1501 1499 1498 1496 1494 1492 1490 1489 1488 1489 1491 1492 1494 1496 1497 1498 1499 1500 1501 1501 1501 1501 1501 1502 1502 1503 1502 1503 1502 1503 1503 1505 1504 1503 1504 1504